Saint Bonnet de Bellac- Haute Vienne - France
Donnes mto: jeudi, 10/05/2012
Date Horaire Temp. E. Hum. E. P.atmo. Pluie Vent Direction Direction Ensoleilleme Solaire P. de rose Temp au vent Rafales
10/05/2012 00:00 16,8 C 84 % 1016,4 hPa 0,0 mm 3,2 km/h (1 Bft) E-SE 112 0 min 0 W/m 14,1 C 16,8 C 4,0 km/h (1 Bft)
10/05/2012 00:10 16,6 C 85 % 1016,4 hPa 0,0 mm 4,7 km/h (1 Bft) E-SE 112 0 min 0 W/m 14,1 C 16,6 C 7,2 km/h (2 Bft)
10/05/2012 00:20 16,5 C 85 % 1016,3 hPa 0,0 mm 2,9 km/h (1 Bft) E 90 0 min 0 W/m 14,0 C 16,5 C 7,2 km/h (2 Bft)
10/05/2012 00:30 16,4 C 85 % 1016,4 hPa 0,0 mm 1,1 km/h (1 Bft) E-SE 112 0 min 0 W/m 13,9 C 16,4 C 4,0 km/h (1 Bft)
10/05/2012 00:40 16,3 C 85 % 1016,3 hPa 0,0 mm 1,8 km/h (1 Bft) SE 135 0 min 0 W/m 13,8 C 16,3 C 4,0 km/h (1 Bft)
10/05/2012 00:50 16,1 C 85 % 1016,3 hPa 0,0 mm 0,0 km/h (0 Bft) SE 135 0 min 0 W/m 13,6 C 16,1 C 0,0 km/h (0 Bft)
10/05/2012 01:00 15,9 C 85 % 1016,4 hPa 0,0 mm 0,0 km/h (0 Bft) SE 135 0 min 0 W/m 13,4 C 15,9 C 0,0 km/h (0 Bft)
10/05/2012 01:10 15,8 C 85 % 1016,4 hPa 0,0 mm 0,0 km/h (0 Bft) SE 135 0 min 0 W/m 13,3 C 15,8 C 0,0 km/h (0 Bft)
10/05/2012 01:20 15,5 C 86 % 1016,2 hPa 0,0 mm 0,4 km/h (0 Bft) E-SE 112 0 min 0 W/m 13,2 C 15,5 C 3,2 km/h (1 Bft)
10/05/2012 01:30 15,4 C 86 % 1016,1 hPa 0,0 mm 0,4 km/h (0 Bft) E-SE 112 0 min 0 W/m 13,1 C 15,4 C 0,4 km/h (0 Bft)
10/05/2012 01:40 15,2 C 86 % 1016,1 hPa 0,0 mm 0,0 km/h (0 Bft) E-SE 112 0 min 0 W/m 12,9 C 15,2 C 0,0 km/h (0 Bft)
10/05/2012 01:50 15,1 C 87 % 1016,0 hPa 0,0 mm 0,0 km/h (0 Bft) E-SE 112 0 min 0 W/m 13,0 C 15,1 C 0,0 km/h (0 Bft)
10/05/2012 02:00 15,1 C 87 % 1016,0 hPa 0,0 mm 0,0 km/h (0 Bft) E-SE 112 0 min 0 W/m 13,0 C 15,1 C 0,0 km/h (0 Bft)
10/05/2012 02:10 15,0 C 87 % 1016,0 hPa 0,0 mm 1,1 km/h (1 Bft) SE 135 0 min 0 W/m 12,9 C 15,0 C 3,6 km/h (1 Bft)
10/05/2012 02:20 15,1 C 88 % 1015,8 hPa 0,0 mm 0,0 km/h (0 Bft) S-SE 157 0 min 0 W/m 13,1 C 15,1 C 0,0 km/h (0 Bft)
10/05/2012 02:30 15,2 C 89 % 1015,7 hPa 0,0 mm 1,4 km/h (1 Bft) S-SE 157 0 min 0 W/m 13,4 C 15,2 C 4,3 km/h (1 Bft)
10/05/2012 02:40 15,4 C 89 % 1015,7 hPa 0,0 mm 3,6 km/h (1 Bft) S-SE 157 0 min 0 W/m 13,6 C 15,4 C 4,3 km/h (1 Bft)
10/05/2012 02:50 15,7 C 89 % 1015,5 hPa 0,0 mm 2,5 km/h (1 Bft) S-SE 157 0 min 0 W/m 13,9 C 15,7 C 3,6 km/h (1 Bft)
10/05/2012 03:02 15,9 C 88 % 1015,5 hPa 0,0 mm 2,2 km/h (1 Bft) S 180 0 min 0 W/m 13,9 C 15,9 C 4,0 km/h (1 Bft)
10/05/2012 03:10 16,1 C 88 % 1015,4 hPa 0,0 mm 0,4 km/h (0 Bft) S-SE 157 0 min 0 W/m 14,1 C 16,1 C 3,2 km/h (1 Bft)
10/05/2012 03:20 16,2 C 87 % 1015,4 hPa 0,0 mm 1,4 km/h (1 Bft) SE 135 0 min 0 W/m 14,0 C 16,2 C 4,0 km/h (1 Bft)
10/05/2012 03:30 16,3 C 87 % 1015,5 hPa 0,0 mm 0,7 km/h (0 Bft) S 180 0 min 0 W/m 14,1 C 16,3 C 6,5 km/h (2 Bft)
10/05/2012 03:40 16,4 C 87 % 1015,4 hPa 0,0 mm 4,3 km/h (1 Bft) S-SE 157 0 min 0 W/m 14,2 C 16,4 C 6,1 km/h (2 Bft)
10/05/2012 03:50 16,8 C 86 % 1015,4 hPa 0,0 mm 4,0 km/h (1 Bft) S-SO 202 0 min 0 W/m 14,4 C 16,8 C 9,0 km/h (2 Bft)
10/05/2012 04:00 17,2 C 84 % 1015,4 hPa 0,0 mm 4,7 km/h (1 Bft) S 180 0 min 0 W/m 14,5 C 17,2 C 6,5 km/h (2 Bft)
10/05/2012 04:10 17,3 C 83 % 1015,5 hPa 0,0 mm 4,0 km/h (1 Bft) S-SE 157 0 min 0 W/m 14,4 C 17,3 C 6,1 km/h (2 Bft)
10/05/2012 04:20 17,6 C 82 % 1015,6 hPa 0,0 mm 5,0 km/h (1 Bft) S-SO 202 0 min 0 W/m 14,5 C 17,6 C 7,2 km/h (2 Bft)
10/05/2012 04:30 17,7 C 82 % 1015,7 hPa 0,0 mm 5,8 km/h (2 Bft) S 180 0 min 0 W/m 14,6 C 17,7 C 10,8 km/h (2 Bft)
10/05/2012 04:40 17,8 C 81 % 1015,6 hPa 0,0 mm 2,5 km/h (1 Bft) S-SE 157 0 min 0 W/m 14,5 C 17,8 C 4,0 km/h (1 Bft)
10/05/2012 04:50 17,9 C 81 % 1015,7 hPa 0,0 mm 5,0 km/h (1 Bft) S-SE 157 0 min 0 W/m 14,6 C 17,9 C 7,6 km/h (2 Bft)
10/05/2012 05:00 17,9 C 80 % 1015,6 hPa 0,0 mm 8,6 km/h (2 Bft) S 180 0 min 0 W/m 14,4 C 17,9 C 13,0 km/h (3 Bft)
10/05/2012 05:10 18,0 C 80 % 1015,6 hPa 0,0 mm 1,8 km/h (1 Bft) S 180 0 min 0 W/m 14,5 C 18,0 C 2,9 km/h (1 Bft)
10/05/2012 05:20 17,9 C 79 % 1015,5 hPa 0,0 mm 9,0 km/h (2 Bft) S-SE 157 0 min 0 W/m 14,2 C 17,9 C 14,4 km/h (3 Bft)
10/05/2012 05:30 17,9 C 79 % 1015,5 hPa 0,0 mm 11,9 km/h (2 Bft) S-SE 157 0 min 0 W/m 14,2 C 17,9 C 18,7 km/h (3 Bft)
10/05/2012 05:40 17,9 C 78 % 1015,4 hPa 0,0 mm 5,8 km/h (2 Bft) SE 135 0 min 0 W/m 14,0 C 17,9 C 10,4 km/h (2 Bft)
10/05/2012 05:50 17,8 C 78 % 1015,5 hPa 0,0 mm 5,8 km/h (2 Bft) S 180 0 min 0 W/m 13,9 C 17,8 C 10,1 km/h (2 Bft)
10/05/2012 06:00 17,8 C 78 % 1015,4 hPa 0,0 mm 9,7 km/h (2 Bft) S 180 0 min 0 W/m 13,9 C 17,8 C 12,2 km/h (2 Bft)
10/05/2012 06:10 17,8 C 78 % 1015,4 hPa 0,0 mm 8,3 km/h (2 Bft) S 180 0 min 0 W/m 13,9 C 17,8 C 8,3 km/h (2 Bft)
10/05/2012 06:20 17,8 C 77 % 1015,4 hPa 0,0 mm 5,4 km/h (2 Bft) S-SO 202 0 min 0 W/m 13,7 C 17,8 C 8,6 km/h (2 Bft)
10/05/2012 06:30 17,8 C 77 % 1015,5 hPa 0,0 mm 4,0 km/h (1 Bft) S-SE 157 0 min 0 W/m 13,7 C 17,8 C 4,3 km/h (1 Bft)
10/05/2012 06:40 17,8 C 77 % 1015,6 hPa 0,0 mm 3,6 km/h (1 Bft) S 180 0 min 0 W/m 13,7 C 17,8 C 9,0 km/h (2 Bft)
10/05/2012 06:50 17,8 C 76 % 1015,7 hPa 0,0 mm 5,0 km/h (1 Bft) S 180 0 min 0 W/m 13,5 C 17,8 C 6,8 km/h (2 Bft)
10/05/2012 07:00 17,9 C 75 % 1015,9 hPa 0,0 mm 5,8 km/h (2 Bft) S 180 0 min 0 W/m 13,4 C 17,9 C 7,9 km/h (2 Bft)
10/05/2012 07:10 18,1 C 75 % 1016,0 hPa 0,0 mm 3,6 km/h (1 Bft) S 180 0 min 0 W/m 13,6 C 18,1 C 6,8 km/h (2 Bft)
10/05/2012 07:20 18,1 C 74 % 1016,2 hPa 0,0 mm 4,3 km/h (1 Bft) S-SO 202 0 min 0 W/m 13,4 C 18,1 C 7,6 km/h (2 Bft)
10/05/2012 07:30 18,1 C 74 % 1016,3 hPa 0,0 mm 3,6 km/h (1 Bft) S 180 0 min 0 W/m 13,4 C 18,1 C 4,3 km/h (1 Bft)
10/05/2012 07:40 18,1 C 74 % 1016,3 hPa 0,0 mm 6,5 km/h (2 Bft) S-SO 202 0 min 0 W/m 13,4 C 18,1 C 12,6 km/h (3 Bft)
10/05/2012 07:50 18,3 C 73 % 1016,2 hPa 0,0 mm 7,6 km/h (2 Bft) S 180 0 min 0 W/m 13,4 C 18,3 C 14,4 km/h (3 Bft)
10/05/2012 08:00 18,6 C 72 % 1016,4 hPa 0,0 mm 8,3 km/h (2 Bft) O-SO 247 0 min 0 W/m 13,4 C 18,6 C 10,4 km/h (2 Bft)
10/05/2012 08:10 19,2 C 70 % 1016,4 hPa 0,0 mm 9,0 km/h (2 Bft) S 180 0 min 0 W/m 13,6 C 19,2 C 9,7 km/h (2 Bft)
10/05/2012 08:20 19,9 C 69 % 1016,4 hPa 0,0 mm 10,4 km/h (2 Bft) S-SO 202 0 min 0 W/m 14,0 C 19,9 C 20,2 km/h (4 Bft)
10/05/2012 08:30 20,3 C 67 % 1016,5 hPa 0,0 mm 8,6 km/h (2 Bft) SO 225 0 min 0 W/m 14,0 C 20,3 C 13,0 km/h (3 Bft)
10/05/2012 08:40 20,4 C 66 % 1016,7 hPa 0,0 mm 9,0 km/h (2 Bft) S-SO 202 0 min 0 W/m 13,8 C 20,4 C 11,2 km/h (2 Bft)
10/05/2012 08:50 20,8 C 65 % 1016,8 hPa 0,0 mm 7,9 km/h (2 Bft) S 180 0 min 0 W/m 14,0 C 20,8 C 10,4 km/h (2 Bft)
10/05/2012 09:00 21,2 C 66 % 1016,9 hPa 0,0 mm 2,9 km/h (1 Bft) S-SO 202 0 min 0 W/m 14,6 C 21,2 C 6,8 km/h (2 Bft)
10/05/2012 09:10 21,7 C 64 % 1016,9 hPa 0,0 mm 7,6 km/h (2 Bft) S-SO 202 0 min 0 W/m 14,6 C 21,7 C 10,4 km/h (2 Bft)
10/05/2012 09:20 22,2 C 62 % 1016,9 hPa 0,0 mm 11,5 km/h (2 Bft) SO 225 0 min 0 W/m 14,6 C 22,2 C 16,6 km/h (3 Bft)
10/05/2012 09:30 22,6 C 61 % 1017,0 hPa 0,0 mm 9,7 km/h (2 Bft) S-SO 202 0 min 0 W/m 14,7 C 22,6 C 13,0 km/h (3 Bft)
10/05/2012 09:40 22,8 C 59 % 1017,0 hPa 0,0 mm 8,3 km/h (2 Bft) S 180 0 min 0 W/m 14,4 C 22,8 C 13,0 km/h (3 Bft)
10/05/2012 09:50 23,1 C 60 % 1017,2 hPa 0,0 mm 11,5 km/h (2 Bft) S-SO 202 0 min 0 W/m 14,9 C 23,1 C 19,1 km/h (3 Bft)
10/05/2012 10:00 23,4 C 61 % 1017,1 hPa 0,0 mm 8,3 km/h (2 Bft) SO 225 0 min 0 W/m 15,4 C 23,4 C 12,6 km/h (3 Bft)
10/05/2012 10:10 23,6 C 59 % 1017,3 hPa 0,0 mm 9,4 km/h (2 Bft) S-SO 202 0 min 0 W/m 15,1 C 23,6 C 11,5 km/h (2 Bft)
10/05/2012 10:20 23,9 C 61 % 1017,4 hPa 0,0 mm 7,2 km/h (2 Bft) S-SO 202 0 min 0 W/m 15,9 C 23,9 C 7,9 km/h (2 Bft)
10/05/2012 10:30 24,5 C 59 % 1017,6 hPa 0,0 mm 9,0 km/h (2 Bft) S 180 0 min 0 W/m 15,9 C 24,5 C 11,5 km/h (2 Bft)
10/05/2012 10:40 24,9 C 58 % 1017,6 hPa 0,0 mm 7,2 km/h (2 Bft) S-SO 202 0 min 0 W/m 16,1 C 24,9 C 11,5 km/h (2 Bft)
10/05/2012 10:50 25,2 C 60 % 1017,6 hPa 0,0 mm 6,5 km/h (2 Bft) S 180 0 min 0 W/m 16,9 C 25,2 C 10,1 km/h (2 Bft)
10/05/2012 11:00 25,6 C 59 % 1017,7 hPa 0,0 mm 2,9 km/h (1 Bft) S-SO 202 0 min 0 W/m 17,0 C 25,6 C 4,0 km/h (1 Bft)
10/05/2012 11:10 25,8 C 56 % 1017,8 hPa 0,0 mm 11,9 km/h (2 Bft) S 180 0 min 0 W/m 16,3 C 25,8 C 20,2 km/h (4 Bft)
10/05/2012 11:20 25,8 C 58 % 1017,8 hPa 0,0 mm 4,7 km/h (1 Bft) S 180 0 min 0 W/m 16,9 C 25,8 C 10,1 km/h (2 Bft)
10/05/2012 11:30 25,8 C 58 % 1017,8 hPa 0,0 mm 6,5 km/h (2 Bft) SO 225 0 min 0 W/m 16,9 C 25,8 C 6,5 km/h (2 Bft)
10/05/2012 11:40 25,7 C 56 % 1018,0 hPa 0,0 mm 10,4 km/h (2 Bft) O-SO 247 0 min 0 W/m 16,2 C 25,7 C 15,8 km/h (3 Bft)
10/05/2012 11:50 25,6 C 56 % 1018,0 hPa 0,0 mm 10,1 km/h (2 Bft) S-SO 202 0 min 0 W/m 16,2 C 25,6 C 14,4 km/h (3 Bft)
10/05/2012 12:00 25,8 C 56 % 1018,1 hPa 0,0 mm 8,6 km/h (2 Bft) SO 225 0 min 0 W/m 16,3 C 25,8 C 10,8 km/h (2 Bft)
10/05/2012 12:10 26,0 C 57 % 1018,3 hPa 0,0 mm 7,9 km/h (2 Bft) S 180 0 min 0 W/m 16,8 C 26,0 C 16,6 km/h (3 Bft)
10/05/2012 12:20 26,1 C 55 % 1018,3 hPa 0,0 mm 9,7 km/h (2 Bft) SO 225 0 min 0 W/m 16,3 C 26,1 C 16,6 km/h (3 Bft)
10/05/2012 12:30 26,1 C 57 % 1018,2 hPa 0,0 mm 4,7 km/h (1 Bft) S-SO 202 0 min 0 W/m 16,9 C 26,1 C 8,3 km/h (2 Bft)
10/05/2012 12:40 26,3 C 57 % 1018,2 hPa 0,0 mm 4,3 km/h (1 Bft) S 180 0 min 0 W/m 17,1 C 26,3 C 6,5 km/h (2 Bft)
10/05/2012 12:50 26,6 C 54 % 1018,2 hPa 0,0 mm 7,2 km/h (2 Bft) S-SO 202 0 min 0 W/m 16,5 C 26,6 C 9,7 km/h (2 Bft)
10/05/2012 13:00 26,8 C 55 % 1018,4 hPa 0,0 mm 7,2 km/h (2 Bft) N 360 0 min 0 W/m 17,0 C 26,8 C 7,2 km/h (2 Bft)
10/05/2012 13:10 27,2 C 53 % 1018,3 hPa 0,0 mm 5,4 km/h (2 Bft) O-SO 247 0 min 0 W/m 16,8 C 27,2 C 7,9 km/h (2 Bft)
10/05/2012 13:20 27,3 C 51 % 1018,3 hPa 0,0 mm 13,0 km/h (3 Bft) S 180 0 min 0 W/m 16,3 C 27,3 C 17,3 km/h (3 Bft)
10/05/2012 13:30 27,5 C 53 % 1018,3 hPa 0,0 mm 7,9 km/h (2 Bft) SO 225 0 min 0 W/m 17,0 C 27,5 C 13,7 km/h (3 Bft)
10/05/2012 13:40 27,6 C 50 % 1018,3 hPa 0,0 mm 10,8 km/h (2 Bft) SO 225 0 min 0 W/m 16,2 C 27,6 C 12,6 km/h (3 Bft)
10/05/2012 13:50 27,7 C 52 % 1018,3 hPa 0,0 mm 7,9 km/h (2 Bft) S-SO 202 0 min 0 W/m 16,9 C 27,7 C 11,2 km/h (2 Bft)
10/05/2012 14:00 27,6 C 51 % 1018,2 hPa 0,0 mm 11,9 km/h (2 Bft) O-SO 247 0 min 0 W/m 16,5 C 27,6 C 15,8 km/h (3 Bft)
10/05/2012 14:10 27,6 C 52 % 1018,2 hPa 0,0 mm 10,1 km/h (2 Bft) S 180 0 min 0 W/m 16,8 C 27,6 C 13,7 km/h (3 Bft)
10/05/2012 14:20 27,7 C 51 % 1018,2 hPa 0,0 mm 9,4 km/h (2 Bft) S-SO 202 0 min 0 W/m 16,6 C 27,7 C 15,1 km/h (3 Bft)
10/05/2012 14:30 27,8 C 51 % 1018,2 hPa 0,0 mm 7,6 km/h (2 Bft) S-SO 202 0 min 0 W/m 16,7 C 27,8 C 12,6 km/h (3 Bft)
10/05/2012 14:40 27,9 C 47 % 1018,2 hPa 0,0 mm 10,1 km/h (2 Bft) O-SO 247 0 min 0 W/m 15,5 C 27,9 C 19,1 km/h (3 Bft)
10/05/2012 14:50 28,0 C 49 % 1018,1 hPa 0,0 mm 10,8 km/h (2 Bft) S 180 0 min 0 W/m 16,3 C 28,0 C 15,1 km/h (3 Bft)
10/05/2012 15:00 27,9 C 50 % 1018,2 hPa 0,0 mm 4,3 km/h (1 Bft) SO 225 0 min 0 W/m 16,5 C 27,9 C 7,6 km/h (2 Bft)
10/05/2012 15:10 28,2 C 51 % 1018,1 hPa 0,0 mm 16,2 km/h (3 Bft) SO 225 0 min 0 W/m 17,1 C 28,2 C 27,7 km/h (5 Bft)
10/05/2012 15:20 28,3 C 49 % 1018,1 hPa 0,0 mm 9,4 km/h (2 Bft) O 270 0 min 0 W/m 16,5 C 28,3 C 13,0 km/h (3 Bft)
10/05/2012 15:30 28,3 C 49 % 1018,1 hPa 0,0 mm 8,3 km/h (2 Bft) SO 225 0 min 0 W/m 16,5 C 28,3 C 8,3 km/h (2 Bft)
10/05/2012 15:40 28,4 C 49 % 1018,1 hPa 0,0 mm 8,3 km/h (2 Bft) SO 225 0 min 0 W/m 16,6 C 28,4 C 13,7 km/h (3 Bft)
10/05/2012 15:50 28,6 C 50 % 1018,1 hPa 0,0 mm 9,7 km/h (2 Bft) S-SO 202 0 min 0 W/m 17,1 C 28,6 C 11,5 km/h (2 Bft)
10/05/2012 16:00 28,8 C 51 % 1018,2 hPa 0,0 mm 6,8 km/h (2 Bft) S-SO 202 0 min 0 W/m 17,6 C 28,8 C 12,6 km/h (3 Bft)
10/05/2012 16:10 28,9 C 48 % 1018,2 hPa 0,0 mm 4,7 km/h (1 Bft) SO 225 0 min 0 W/m 16,8 C 28,9 C 7,9 km/h (2 Bft)
10/05/2012 16:20 29,0 C 47 % 1018,1 hPa 0,0 mm 8,3 km/h (2 Bft) SO 225 0 min 0 W/m 16,5 C 29,0 C 11,9 km/h (2 Bft)
10/05/2012 16:30 28,9 C 47 % 1018,0 hPa 0,0 mm 8,3 km/h (2 Bft) SO 225 0 min 0 W/m 16,4 C 28,9 C 11,5 km/h (2 Bft)
10/05/2012 16:40 28,9 C 48 % 1018,0 hPa 0,0 mm 5,8 km/h (2 Bft) SO 225 0 min 0 W/m 16,8 C 28,9 C 10,8 km/h (2 Bft)
10/05/2012 16:50 29,1 C 49 % 1018,2 hPa 0,0 mm 5,8 km/h (2 Bft) O 270 0 min 0 W/m 17,3 C 29,1 C 8,6 km/h (2 Bft)
10/05/2012 17:00 29,1 C 48 % 1018,2 hPa 0,0 mm 8,6 km/h (2 Bft) S-SO 202 0 min 0 W/m 16,9 C 29,1 C 9,0 km/h (2 Bft)
10/05/2012 17:10 29,1 C 43 % 1018,2 hPa 0,0 mm 10,1 km/h (2 Bft) S-SO 202 0 min 0 W/m 15,2 C 29,1 C 14,4 km/h (3 Bft)
10/05/2012 17:20 28,8 C 45 % 1018,2 hPa 0,0 mm 9,7 km/h (2 Bft) O-SO 247 0 min 0 W/m 15,7 C 28,8 C 13,7 km/h (3 Bft)
10/05/2012 17:30 28,4 C 46 % 1018,3 hPa 0,0 mm 4,3 km/h (1 Bft) SO 225 0 min 0 W/m 15,6 C 28,4 C 4,3 km/h (1 Bft)
10/05/2012 17:40 28,3 C 48 % 1018,3 hPa 0,0 mm 4,7 km/h (1 Bft) O-SO 247 0 min 0 W/m 16,2 C 28,3 C 6,1 km/h (2 Bft)
10/05/2012 17:50 28,1 C 50 % 1018,4 hPa 0,0 mm 1,8 km/h (1 Bft) SO 225 0 min 0 W/m 16,7 C 28,1 C 1,8 km/h (1 Bft)
10/05/2012 18:00 28,1 C 51 % 1018,5 hPa 0,0 mm 4,7 km/h (1 Bft) S-SO 202 0 min 0 W/m 17,0 C 28,1 C 4,7 km/h (1 Bft)
10/05/2012 18:10 28,3 C 50 % 1018,5 hPa 0,0 mm 8,3 km/h (2 Bft) O-NO 292 0 min 0 W/m 16,9 C 28,3 C 16,9 km/h (3 Bft)
10/05/2012 18:20 28,4 C 50 % 1018,6 hPa 0,0 mm 4,3 km/h (1 Bft) O 270 0 min 0 W/m 17,0 C 28,4 C 4,3 km/h (1 Bft)
10/05/2012 18:30 28,4 C 49 % 1018,6 hPa 0,0 mm 10,1 km/h (2 Bft) O 270 0 min 0 W/m 16,6 C 28,4 C 10,1 km/h (2 Bft)
10/05/2012 18:40 28,3 C 50 % 1018,6 hPa 0,0 mm 6,1 km/h (2 Bft) S-SO 202 0 min 0 W/m 16,9 C 28,3 C 10,4 km/h (2 Bft)
10/05/2012 18:50 28,2 C 49 % 1018,6 hPa 0,0 mm 5,4 km/h (2 Bft) SO 225 0 min 0 W/m 16,5 C 28,2 C 7,2 km/h (2 Bft)
10/05/2012 19:00 27,9 C 51 % 1018,6 hPa 0,0 mm 3,6 km/h (1 Bft) O-SO 247 0 min 0 W/m 16,8 C 27,9 C 7,2 km/h (2 Bft)
10/05/2012 19:10 27,8 C 51 % 1018,7 hPa 0,0 mm 0,7 km/h (0 Bft) S-SO 202 0 min 0 W/m 16,7 C 27,8 C 2,9 km/h (1 Bft)
10/05/2012 19:20 27,6 C 51 % 1018,8 hPa 0,0 mm 2,9 km/h (1 Bft) SO 225 0 min 0 W/m 16,5 C 27,6 C 3,2 km/h (1 Bft)
10/05/2012 19:30 27,4 C 53 % 1018,8 hPa 0,0 mm 0,0 km/h (0 Bft) SO 225 0 min 0 W/m 17,0 C 27,4 C 0,0 km/h (0 Bft)
10/05/2012 19:40 27,3 C 53 % 1018,8 hPa 0,0 mm 1,4 km/h (1 Bft) SO 225 0 min 0 W/m 16,9 C 27,3 C 1,4 km/h (1 Bft)
10/05/2012 19:50 27,1 C 55 % 1018,8 hPa 0,0 mm 0,0 km/h (0 Bft) SO 225 0 min 0 W/m 17,3 C 27,1 C 0,0 km/h (0 Bft)
10/05/2012 20:00 26,9 C 55 % 1018,9 hPa 0,0 mm 0,0 km/h (0 Bft) SO 225 0 min 0 W/m 17,1 C 26,9 C 0,0 km/h (0 Bft)
10/05/2012 20:10 26,8 C 55 % 1018,9 hPa 0,0 mm 0,0 km/h (0 Bft) SO 225 0 min 0 W/m 17,0 C 26,8 C 0,0 km/h (0 Bft)
10/05/2012 20:20 26,6 C 56 % 1019,0 hPa 0,0 mm 0,0 km/h (0 Bft) SO 225 0 min 0 W/m 17,1 C 26,6 C 0,0 km/h (0 Bft)
10/05/2012 20:30 26,3 C 57 % 1019,0 hPa 0,0 mm 0,0 km/h (0 Bft) SO 225 0 min 0 W/m 17,1 C 26,3 C 0,0 km/h (0 Bft)
10/05/2012 20:40 25,9 C 58 % 1019,0 hPa 0,0 mm 0,0 km/h (0 Bft) SO 225 0 min 0 W/m 17,0 C 25,9 C 0,0 km/h (0 Bft)
10/05/2012 20:50 25,4 C 59 % 1019,1 hPa 0,0 mm 0,0 km/h (0 Bft) SO 225 0 min 0 W/m 16,8 C 25,4 C 0,0 km/h (0 Bft)
10/05/2012 21:00 24,9 C 60 % 1019,2 hPa 0,0 mm 0,0 km/h (0 Bft) SO 225 0 min 0 W/m 16,6 C 24,9 C 0,0 km/h (0 Bft)
10/05/2012 21:10 24,4 C 61 % 1019,2 hPa 0,0 mm 0,0 km/h (0 Bft) SO 225 0 min 0 W/m 16,4 C 24,4 C 0,0 km/h (0 Bft)
10/05/2012 21:20 23,9 C 62 % 1019,1 hPa 0,0 mm 0,0 km/h (0 Bft) S 180 0 min 0 W/m 16,2 C 23,9 C 0,0 km/h (0 Bft)
10/05/2012 21:30 23,4 C 63 % 1019,1 hPa 0,0 mm 1,1 km/h (1 Bft) S-SE 157 0 min 0 W/m 15,9 C 23,4 C 1,1 km/h (1 Bft)
10/05/2012 21:40 23,1 C 64 % 1019,2 hPa 0,0 mm 0,0 km/h (0 Bft) S-SE 157 0 min 0 W/m 15,9 C 23,1 C 0,0 km/h (0 Bft)
10/05/2012 21:50 22,7 C 65 % 1019,2 hPa 0,0 mm 0,0 km/h (0 Bft) S-SE 157 0 min 0 W/m 15,8 C 22,7 C 0,0 km/h (0 Bft)
10/05/2012 22:00 22,3 C 65 % 1019,4 hPa 0,0 mm 0,0 km/h (0 Bft) S-SE 157 0 min 0 W/m 15,4 C 22,3 C 0,0 km/h (0 Bft)
10/05/2012 22:10 21,9 C 65 % 1019,4 hPa 0,0 mm 0,0 km/h (0 Bft) SE 135 0 min 0 W/m 15,0 C 21,9 C 2,9 km/h (1 Bft)
10/05/2012 22:20 21,7 C 66 % 1019,5 hPa 0,0 mm 0,0 km/h (0 Bft) SE 135 0 min 0 W/m 15,1 C 21,7 C 0,0 km/h (0 Bft)
10/05/2012 22:30 21,5 C 69 % 1019,6 hPa 0,0 mm 0,0 km/h (0 Bft) E-NE 67 0 min 0 W/m 15,6 C 21,5 C 0,0 km/h (0 Bft)
10/05/2012 22:40 21,3 C 70 % 1019,7 hPa 0,0 mm 1,1 km/h (1 Bft) E-NE 67 0 min 0 W/m 15,6 C 21,3 C 3,6 km/h (1 Bft)
10/05/2012 22:50 21,0 C 71 % 1019,7 hPa 0,0 mm 1,8 km/h (1 Bft) E-SE 112 0 min 0 W/m 15,5 C 21,0 C 4,0 km/h (1 Bft)
10/05/2012 23:00 20,8 C 72 % 1019,6 hPa 0,0 mm 1,4 km/h (1 Bft) E-SE 112 0 min 0 W/m 15,6 C 20,8 C 3,2 km/h (1 Bft)
10/05/2012 23:10 20,4 C 73 % 1019,6 hPa 0,0 mm 0,7 km/h (0 Bft) E 90 0 min 0 W/m 15,4 C 20,4 C 1,4 km/h (1 Bft)
10/05/2012 23:20 20,2 C 74 % 1019,6 hPa 0,0 mm 2,9 km/h (1 Bft) E-SE 112 0 min 0 W/m 15,4 C 20,2 C 4,3 km/h (1 Bft)
10/05/2012 23:30 20,0 C 75 % 1019,6 hPa 0,0 mm 1,1 km/h (1 Bft) E-SE 112 0 min 0 W/m 15,4 C 20,0 C 1,1 km/h (1 Bft)
10/05/2012 23:40 19,9 C 75 % 1019,5 hPa 0,0 mm 2,5 km/h (1 Bft) E 90 0 min 0 W/m 15,3 C 19,9 C 4,0 km/h (1 Bft)
10/05/2012 23:50 19,8 C 75 % 1019,4 hPa 0,0 mm 1,1 km/h (1 Bft) E-SE 112 0 min 0 W/m 15,2 C 19,8 C 3,6 km/h (1 Bft)
_ Min-Heure 02:10 17:10 06:20 - 22:30 - - - - 02:10 02:10 22:30
Minimum _ 15,0 C 43 % 1015,4 hPa - 0,0 km/h (0 Bft) - - - - 12,9 C 15,0 C 0,0 km/h (0 Bft)
_ Max-Heure 17:10 02:50 22:50 23:50 15:10 - - 23:50 23:50 16:00 17:10 15:10
Maximum _ 29,1 C 89 % 1019,7 hPa 0,0 mm 16,2 km/h
SO (3 Bft)
- - 0 min 0 W/m 17,6 C 29,1 C 27,7 km/h
SO (5 Bft)
Moyenne _ 22,6 C 65 % 1017,5 hPa #0,0 mm 5,0 km/h (1 Bft) SO - #0 min. 0 W/m 15,3 C 22,6 C 7,7 km/h (2 Bft)
Saint Bonnet de Bellac- Haute Vienne - France